Current Version              Previous Version:    01  02  03  04  05  06  07  08  09  10  11  12  13  14  15  16  17  18  19  20  21  22  23  24  25  26  27  28  29  30  
   31  32  33  34  35  36  37  38  39  40  41  42  43  44  45  46  47  48  49  50  51  52  53  54  55  56  57  58  59  60  

[Printable]
393
ASUS44 KEWX 230810
RWRTX
SOUTH TEXAS REGIONAL WEATHER ROUNDUP
NATIONAL WEATHER SERVICE AUSTIN/SAN ANTONIO TX
300 AM CDT WED APR 23 2014

NOTE: "FAIR" INDICATED FEW OR NO CLOUDS BELOW 12,000 FEET WITH NO
SIGNIFICANT WEATHER AND/OR OBSTRUCTIONS TO VISIBILITY.

* - THESE STATIONS ARE NOT NWS OR FAA STATIONS...AND ARE NOT SUBJECT
    TO NWS AND FAA QUALITY CONTROL.

TXZ171-172-183>190-230900-
TEXAS HILL COUNTRY AND EDWARDS PLATEAU

CITY           SKY/WX    TMP DP  RH WIND       PRES   REMARKS
JUNCTION       CLEAR     64  54  69 E3        29.94F
*LLANO         CLEAR     61  55  82 CALM      29.96F
BURNET         CLEAR     65  55  70 CALM      29.96F
*HORSESHOE BAY CLEAR     63  54  72 S5        29.93F
*KERRVILLE     CLEAR     59  55  88 CALM      29.95F
*FREDERICKSBRG CLEAR     57  53  89 CALM      29.95F
*ROCKSPRINGS   CLEAR     66  57  72 SE8       29.96F
*BOERNE STAGE  MOCLDY    59  52  77 CALM      29.96S
*CASTROVILLE   PTCLDY    67  58  74 CALM      29.94S
HONDO          PTCLDY    70  61  73 E6        29.93F
*UVALDE        PTCLDY    71  63  75 E7        29.90F
DEL RIO        CLEAR     74  55  51 E9        29.86F
LAUGHLIN AFB   CLEAR     72  57  60 SE10      29.87F
CARRIZO SPRGS  CLEAR     72  63  73 SE6       29.86F
$$

TXZ173-191>194-202-209-217>225-228-230900-
CENTRAL AND SOUTH CENTRAL TEXAS

CITY           SKY/WX    TMP DP  RH WIND       PRES   REMARKS
GEORGETOWN     CLEAR     57  54  88 CALM      29.94F
AUSTIN/BERGSTM CLEAR     58  56  93 CALM      29.93F
AUSTIN/MABRY   CLEAR     65  57  75 E3        29.94F
*AUSTIN/EXEC   MOCLDY    64  57  77 CALM      29.94F
*LAGO VISTA    CLEAR     67  57  69 E5        29.95F
SAN MARCOS     CLEAR     59  46  63 CALM      29.95F
NEW BRAUNFELS  CLEAR     63  57  81 CALM      29.92F
RANDOLPH AFB   CLEAR     62  58  84 CALM      29.93F
PT SAN ANTONIO CLEAR     67  62  82 SE6       29.91F
SAN ANTONIO    CLEAR     69  61  75 CALM      29.93F
STINSON FIELD  CLEAR     66  60  81 CALM      29.91F
*PLEASANTON    CLEAR     68  62  81 E3        29.92F
*LA GRANGE     CLEAR     68  66  93 CALM      29.91F
*GIDDINGS      CLEAR     60  57  89 CALM      29.97F
*GONZALES      CLEAR     66  65  96 CALM      29.92S
$$

TXZ163>164-176>182-195>201-210>213-226-227-235-230900-
SOUTHEAST TEXAS

CITY           SKY/WX    TMP DP  RH WIND       PRES   REMARKS
COLLEGE STN    CLEAR     65  59  81 CALM      29.93F
*BRYAN         CLEAR     60  58  94 E3        29.92F FOG
*CALDWELL      CLEAR     61  61 100 CALM      29.96F
*CROCKETT      CLEAR     61  61 100 CALM      29.97S FOG
*BRENHAM       CLEAR     61  59  93 CALM      29.94S
HUNTSVILLE     CLEAR     70  59  68 CALM      29.94S
CONROE         CLEAR     57  57 100 CALM      29.94F
HOUSTON BUSH   CLEAR     66  65  96 CALM      29.93F
HOUSTON HOBBY  FOG       66  66 100 CALM      29.93F VSB 1
*HOUSTON SW AP FOG       65  65 100 CALM      29.94F VSB<1/4
PEARLAND       FOG       67  66  97 CALM      29.95F VSB 1/4
HOUSTON HOOKS  CLEAR     65  64  97 CALM      29.94F
ELLINGTON FLD  FOG       68  66  94 CALM      29.95F VSB 1
SUGAR LAND     MOCLDY    65  65 100 CALM      29.93F
*HOUSTON EXEC  FOG       64  64 100 CALM      29.94F VSB<1/4
*CLEVELAND MUN MOCLDY    60  59  97 CALM      29.94F
*WHARTON       CLEAR     65  64  97 CALM      29.93F FOG
$$

TXZ214>216-236>238-230900-
THE UPPER TEXAS COAST

CITY           SKY/WX    TMP DP  RH WIND       PRES   REMARKS
*ORANGE        FOG       62  62 100 CALM      29.95S VSB 1/2
PORT ARTHUR    FOG       65  64  97 CALM      29.93F VSB<1/4
GALVESTON      CLEAR     69  69 100 SW3       29.94F
ANGLETON       FOG       63  63 100 CALM      29.93F VSB 1/4
*BAY CITY      FOG       63  63  99 CALM      29.93F VSB 1/4
PALACIOS       PTCLDY    72  69  90 S7        29.92F
$$

TXZ229>234-239>247-230900-
TEXAS COASTAL BEND AND RIO GRANDE PLAINS

CITY           SKY/WX    TMP DP  RH WIND       PRES   REMARKS
VICTORIA       PTCLDY    65  64  97 S5        29.93F FOG
*BEEVILLE      CLEAR     67  67 100 SE5       29.91F
ROCKPORT       CLEAR     70  68  93 S3        29.92F
*PORT ARANSAS  CLEAR     69  69 100 S3        29.92F
*PORT LAVACA   FOG       65  65  97 S3        29.92F VSB 1
*INGLESIDE     CLEAR     69  68  96 SE6       29.91F
CORPUS CHRISTI PTCLDY    69  66  90 SE7       29.91F
CORPUS NAS     PTCLDY    72  70  93 S9        29.91F
*ROBSTOWN      CLEAR     69  66  90 SE5       29.91F
ALICE          CLEAR     65  63  93 SE5       29.90F
KINGSVILLE NAS CLEAR     66  64  93 SE6       29.91F
COTULLA        CLEAR     72  63  73 SE8       29.89F
*FAITH RANCH   CLEAR     73  64  73 SE7       29.88S
LAREDO         CLEAR     75  68  79 SE13      29.91F
$$

TXZ248>255-230900-
DEEP SOUTH TEXAS

CITY           SKY/WX    TMP DP  RH WIND       PRES   REMARKS
BROWNSVILLE    CLEAR     68  67  96 S7        29.92F
PORT ISABEL    NOT AVBL
*SOUTH PADRE   LGT RAIN  72  70  94 CALM      29.92S
HARLINGEN      PTCLDY    67  66  97 S7        29.91F
*HEBBRONVILLE  CLEAR     68  65  89 CALM      29.91F
MCALLEN        MOCLDY    71  69  93 S7        29.90F
*WESLACO       PTCLDY    68  65  90 S7        29.91S
FALFURRIAS     CLEAR     69  65  88 SE5       29.90F
EDINBURG       MOCLDY    70  66  88 S3        29.90F
*ZAPATA        PTCLDY    72  68  89 SE5       29.89F
$$

TXZ213>215-236>238-242>244-246-247-251-254-255-230900-
CMAN STATIONS

STATION/POSITION TIME  TEMP    WIND        PRES    WAVE
                       AIR SEA DIR/SP/G            HT/PER
                 (UTC) (F)     (DEG/KT/KT) (MB)    (FT/S)
SABINE PASS      0800   68 71  250/  3/  5 1013.7
SEA RIM ST PARK  0800   67     250/  5/  5 1014.3
NORTH JETTY/GLS  0800   70 73  270/  4/  5   N/A
EAGLE POINT      0800   67 68  290/  5/  6 1013.5
MORGANS POINT    0800   69 67  240/  4/  5   N/A
MISSION/ARANSAS  0700   72     180/  7     1014.0
PORT O`CONNOR    0800          180/ 10/ 12   N/A
PORT ARANSAS     0800   70 73  130/  4/  5 1013.2
MALAQUITE BEACH  0800   71 73  150/  9/ 11 1012.3
BAFFIN BAY       0800   71 72  150/  9/ 13 1012.8
PORT ISABEL      0800   71 74  180/  7/  8 1013.4
$$

GMZ080-GMZ150>470-230900-
OFFSHORE BUOY REPORTS

STATION/POSITION TIME  TEMP    WIND        PRES    WAVE
                       AIR SEA DIR/SP/G            HT/PER
                 (UTC) (F)     (DEG/KT/KT) (MB)    (FT/S)
20 E GALVESTON   0800   70 70  250/  6/  8 1013.6    1/ 5
35 NE PT MANSFLD 0800   71 71  150/  6/  6 1013.0    1/ 5
$$